Skip Navigation Linkswww.weather.gov 
NOAA logo - Click to go to the NOAA homepage National Weather Service Forecast Office   NWS logo - Click to go to the NWS homepage    
Boise, Idaho
navigation bar decoration      
ESRI-based Geosearch
spacer
Hourly Weather Roundup  Link to RSS feed  
• Go Back • Print Friendly •  Latest Older  • Font:  A A A A •
• Turn Dictionary On •
ASUS45 KBOI 170610
 RWRID 
 
 IDAHO REGIONAL WEATHER ROUNDUP
 NATIONAL WEATHER SERVICE BOISE ID
 1100 PM MST SAT DEC 16 2017
 
 NOTE: "FAIR" INDICATES FEW OR NO CLOUDS BELOW 12000 FEET
 WITH NO SIGNIFICANT WEATHER AND/OR OBSTRUCTIONS TO VISIBILITY
 
 IDZ012-014-170700-
 SOUTHWEST IDAHO
 
   
 CITY           SKY/WX    TMP DP  RH WIND       PRES   REMARKS
 BOISE          CLEAR     26  21  81 NW5       30.20R WCI  20          
 CALDWELL       CLEAR     27  21  78 W8        30.24R WCI  19          
 MOUNTAIN HOME  CLEAR     29  27  95 NW13      30.18R WCI  18          
 $$
 
 IDZ016-017-170700-
 SOUTHCENTRAL IDAHO
 
   
 CITY           SKY/WX    TMP DP  RH WIND       PRES   REMARKS
 BURLEY         CLOUDY    31  23  72 W12G23    30.14R WCI  22          
 JEROME         CLOUDY    27  23  85 SW15      30.14R WCI  15          
 TWIN FALLS     CLOUDY    27  23  85 SW13      30.15R WCI  16          
 $$
 
 IDZ019>023-170700-
 SOUTHEAST IDAHO
 
   
 CITY           SKY/WX    TMP DP  RH WIND       PRES   REMARKS
 IDAHO FALLS    CLOUDY    22  21  96 SW7       30.11R WCI  13          
 POCATELLO      CLOUDY    27  24  89 W12       30.13R WCI  17          
 REXBURG        CLOUDY    22  21  96 S6        30.08R FOG     WCI  14  
 $$
 
 IDZ006-010-011-018-031-032-170700-
 CENTRAL IDAHO MOUNTAINS
 
   
 CITY           SKY/WX    TMP DP  RH WIND       PRES   REMARKS
 MCCALL         PTCLDY    10   6  84 CALM      30.12R                  
 HAILEY         FOG       14  14 100 SE3       30.09S VSB<1/4          
 STANLEY          N/A      6   3  87 CALM      30.09R                  
 SALMON         CLOUDY    12  10  92 E3        30.19R                  
 CHALLIS        CLEAR     12   6  77 NW3       30.12R                  
 $$
 
 IDZ002-004-006-007-026-170700-
 NORTHERN IDAHO
 
   
 CITY           SKY/WX    TMP DP  RH WIND       PRES   REMARKS
 LEWISTON       CLOUDY    29  27  92 NE5       30.28F WCI  24          
 LOWELL           N/A     28  26  92 CALM      30.34S                  
 COEUR D`ALENE  CLOUDY    27  24  89 S8        30.23S WCI  19          
 MULLAN PASS    CLOUDY    17  12  80 S7        30.03F WCI   8          
 $$

Webmaster
US Dept of Commerce
National Oceanic and Atmospheric Administration
National Weather Service
Boise Weather Forecast Office
NIFC Building 3807
Boise, ID 83705-5354

Tel: (208) 334-9860

Disclaimer
Information Quality
Credits
Glossary
Organization
Privacy Policy
Freedom of Information Act
About Us
Career Opportunities